TimeMST,TemperatureF,Dew PointF,Humidity,Sea Level PressureIn,VisibilityMPH,Wind Direction,Wind SpeedMPH,Gust SpeedMPH,PrecipitationIn,Events,Conditions,WindDirDegrees,DateUTC
12:53 AM,50.0,26.1,39,29.78,10.0,NNW,13.8,-,N/A,,Clear,330,2012-12-06 07:53:00
1:53 AM,48.0,26.1,42,29.80,10.0,North,19.6,-,N/A,,Clear,360,2012-12-06 08:53:00
2:53 AM,46.0,28.0,50,29.83,10.0,North,20.7,-,N/A,,Clear,360,2012-12-06 09:53:00
3:53 AM,45.0,28.0,52,29.84,10.0,North,18.4,-,N/A,,Partly Cloudy,360,2012-12-06 10:53:00
4:53 AM,44.1,28.9,55,29.87,10.0,NNW,17.3,-,N/A,,Overcast,340,2012-12-06 11:53:00
5:53 AM,39.9,28.0,63,29.92,10.0,NNW,13.8,-,N/A,,Partly Cloudy,340,2012-12-06 12:53:00
6:53 AM,39.0,30.9,73,29.96,10.0,NNE,19.6,-,N/A,,Overcast,30,2012-12-06 13:53:00
7:53 AM,37.9,24.1,57,30.01,10.0,NE,11.5,20.7,N/A,,Overcast,40,2012-12-06 14:53:00
8:53 AM,37.0,21.9,54,30.04,10.0,ENE,15.0,-,N/A,,Overcast,60,2012-12-06 15:53:00
9:53 AM,39.0,21.9,50,30.04,10.0,ENE,11.5,-,N/A,,Partly Cloudy,60,2012-12-06 16:53:00
10:53 AM,42.1,23.0,47,30.02,10.0,NE,10.4,-,N/A,,Mostly Cloudy,50,2012-12-06 17:53:00
11:53 AM,43.0,21.0,42,30.00,10.0,Variable,5.8,16.1,N/A,,Mostly Cloudy,0,2012-12-06 18:53:00
12:53 PM,43.0,21.0,42,29.96,10.0,ENE,6.9,-,N/A,,Clear,60,2012-12-06 19:53:00
1:53 PM,44.1,21.0,40,29.94,10.0,SE,10.4,-,N/A,,Clear,130,2012-12-06 20:53:00
2:53 PM,43.0,19.9,40,29.93,10.0,SE,8.1,-,N/A,,Clear,140,2012-12-06 21:53:00
3:53 PM,41.0,19.0,41,29.93,10.0,ESE,9.2,-,N/A,,Clear,120,2012-12-06 22:53:00
4:53 PM,34.0,18.0,52,29.96,10.0,ESE,8.1,-,N/A,,Clear,120,2012-12-06 23:53:00
5:53 PM,30.9,17.1,57,29.97,10.0,SE,9.2,-,N/A,,Clear,130,2012-12-07 00:53:00
6:53 PM,27.0,15.1,61,29.99,10.0,SE,6.9,-,N/A,,Clear,140,2012-12-07 01:53:00
7:53 PM,27.0,14.0,58,29.99,10.0,SE,9.2,-,N/A,,Clear,140,2012-12-07 02:53:00
8:53 PM,28.0,14.0,56,30.00,10.0,SE,11.5,-,N/A,,Clear,140,2012-12-07 03:53:00
9:53 PM,28.9,12.9,51,29.98,10.0,SSE,13.8,-,N/A,,Clear,160,2012-12-07 04:53:00
10:53 PM,28.0,12.9,53,29.95,10.0,SSE,15.0,-,N/A,,Clear,160,2012-12-07 05:53:00
11:53 PM,28.0,14.0,56,29.93,10.0,South,15.0,-,N/A,,Clear,170,2012-12-07 06:53:00